When you browse on this site, cookies collect data to enhance your experience and personalize the content and advertising you see.
Visit our Privacy Policy to learn more. By continuing to use the site, you agree to this use of cookies and data.
  • En España
  • Lista de países
  • Para 7 días
  • Temperatura del agua
  • Mapa Satelital
  • El tiempo en el mapa
  • Informadores
  • user-avatar
    Iniciar sesión

    Tiempo cada hora Vysokiy Holm

    Hoy, 20 Mayo, Lunes

    Tiempo Temperatura Precipitaciones Viento Presión Humedad
    00:00 +13°C° 0 mm 3 mps 748 mmHg 81%
    01:00 +13°C° 0 mm 3 mps 748 mmHg 82%
    02:00 +13°C° 0 mm 3 mps 748 mmHg 81%
    03:00 +13°C° 0 mm 3 mps 748 mmHg 81%
    04:00 +13°C° 0 mm 3 mps 748 mmHg 82%
    05:00 +13°C° 0 mm 3 mps 748 mmHg 82%
    06:00 +16°C° 0 mm 3 mps 748 mmHg 77%
    07:00 +18°C° 0 mm 3 mps 748 mmHg 72%
    08:00 +20°C° 0 mm 3 mps 748 mmHg 67%
    09:00 +21°C° 0 mm 4 mps 749 mmHg 62%
    10:00 +22°C° 0 mm 4 mps 749 mmHg 56%
    11:00 +23°C° 0 mm 5 mps 749 mmHg 51%
    12:00 +25°C° 0 mm 5 mps 748 mmHg 50%
    13:00 +25°C° 0 mm 5 mps 748 mmHg 50%
    14:00 +25°C° 0 mm 5 mps 748 mmHg 49%
    15:00 +25°C° 0 mm 4 mps 748 mmHg 53%
    16:00 +25°C° 0 mm 4 mps 748 mmHg 57%
    17:00 +24°C° 0 mm 3 mps 748 mmHg 61%
    18:00 +21°C° 0 mm 3 mps 747 mmHg 66%
    19:00 +19°C° 0 mm 3 mps 747 mmHg 71%
    20:00 +17°C° 0 mm 3 mps 747 mmHg 76%
    21:00 +17°C° 0 mm 3 mps 747 mmHg 78%
    22:00 +16°C° 0 mm 3 mps 747 mmHg 79%
    23:00 +14°C° 0 mm 3 mps 747 mmHg 81%

    Mañana, 21 Mayo, Martes

    Tiempo Temperatura Precipitaciones Viento Presión Humedad
    00:00 +14°C° 0 mm 3 mps 747 mmHg 82%
    01:00 +13°C° 0 mm 3 mps 748 mmHg 83%
    02:00 +13°C° 0 mm 3 mps 748 mmHg 84%
    03:00 +13°C° 0 mm 3 mps 747 mmHg 84%
    04:00 +13°C° 0 mm 3 mps 747 mmHg 83%
    05:00 +13°C° 0 mm 4 mps 747 mmHg 83%
    06:00 +15°C° 0 mm 4 mps 747 mmHg 76%
    07:00 +16°C° 0 mm 5 mps 747 mmHg 70%
    08:00 +19°C° 0 mm 5 mps 747 mmHg 63%
    09:00 +20°C° 0 mm 6 mps 747 mmHg 61%
    10:00 +21°C° 0 mm 6 mps 747 mmHg 59%
    11:00 +22°C° 0 mm 6 mps 747 mmHg 58%
    12:00 +22°C° 0 mm 6 mps 746 mmHg 58%
    13:00 +23°C° 0 mm 5 mps 746 mmHg 58%
    14:00 +25°C° 0 mm 5 mps 746 mmHg 59%
    15:00 +23°C° 0 mm 5 mps 745 mmHg 61%
    16:00 +23°C° 0 mm 4 mps 745 mmHg 63%
    17:00 +23°C° 0 mm 4 mps 745 mmHg 66%
    18:00 +21°C° 0 mm 4 mps 745 mmHg 71%
    19:00 +19°C° 0 mm 3 mps 745 mmHg 76%
    20:00 +18°C° 0 mm 3 mps 744 mmHg 82%
    21:00 +17°C° 0 mm 3 mps 744 mmHg 81%
    22:00 +16°C° 0 mm 3 mps 744 mmHg 81%
    23:00 +14°C° 0 mm 3 mps 744 mmHg 80%

    Pasado mañana, 22 Mayo, Miércoles

    Tiempo Temperatura Precipitaciones Viento Presión Humedad
    00:00 +14°C° 0 mm 3 mps 744 mmHg 83%
    01:00 +13°C° 0 mm 3 mps 744 mmHg 86%
    02:00 +13°C° 0 mm 3 mps 743 mmHg 89%
    03:00 +13°C° 0 mm 3 mps 743 mmHg 90%
    04:00 +14°C° 0 mm 2 mps 743 mmHg 91%
    05:00 +14°C° 0 mm 2 mps 743 mmHg 92%
    06:00 +15°C° 0 mm 2 mps 743 mmHg 88%
    07:00 +17°C° 0 mm 2 mps 743 mmHg 84%
    08:00 +19°C° 0 mm 2 mps 743 mmHg 81%
    09:00 +20°C° 0 mm 2 mps 742 mmHg 77%
    10:00 +21°C° 0 mm 3 mps 742 mmHg 74%
    11:00 +22°C° 0 mm 3 mps 742 mmHg 71%
    12:00 +24°C° 0.4 mm 3 mps 742 mmHg 69%
    13:00 +24°C° 0.4 mm 3 mps 742 mmHg 67%
    14:00 +25°C° 0.4 mm 3 mps 741 mmHg 65%
    15:00 +25°C° 0 mm 3 mps 741 mmHg 64%
    16:00 +25°C° 0 mm 3 mps 741 mmHg 64%
    17:00 +25°C° 0 mm 2 mps 741 mmHg 64%
    18:00 +23°C° 0.1 mm 2 mps 741 mmHg 71%
    19:00 +20°C° 0.1 mm 2 mps 741 mmHg 77%
    20:00 +19°C° 0.1 mm 2 mps 741 mmHg 84%
    21:00 +18°C° 0 mm 2 mps 741 mmHg 86%
    22:00 +17°C° 0 mm 2 mps 741 mmHg 88%
    23:00 +16°C° 0 mm 2 mps 741 mmHg 90%

    23 Mayo, Jueves

    Tiempo Temperatura Precipitaciones Viento Presión Humedad
    00:00 +16°C° 0 mm 2 mps 741 mmHg 90%
    01:00 +15°C° 0 mm 2 mps 741 mmHg 91%
    02:00 +15°C° 0 mm 2 mps 740 mmHg 91%
    03:00 +15°C° 0 mm 2 mps 740 mmHg 91%
    04:00 +15°C° 0 mm 1 mps 741 mmHg 90%
    05:00 +15°C° 0 mm 1 mps 741 mmHg 90%
    06:00 +17°C° 0 mm 2 mps 741 mmHg 84%
    07:00 +19°C° 0 mm 2 mps 741 mmHg 78%
    08:00 +21°C° 0 mm 2 mps 741 mmHg 72%
    09:00 +23°C° 0 mm 2 mps 740 mmHg 67%
    10:00 +24°C° 0 mm 3 mps 740 mmHg 62%
    11:00 +25°C° 0 mm 3 mps 740 mmHg 57%
    12:00 +25°C° 0 mm 3 mps 740 mmHg 55%
    13:00 +25°C° 0 mm 3 mps 740 mmHg 54%
    14:00 +26°C° 0 mm 3 mps 740 mmHg 53%
    15:00 +26°C° 0 mm 3 mps 740 mmHg 55%
    16:00 +25°C° 0 mm 3 mps 740 mmHg 58%
    17:00 +25°C° 0 mm 3 mps 739 mmHg 60%
    18:00 +23°C° 0 mm 2 mps 739 mmHg 65%
    19:00 +20°C° 0 mm 2 mps 739 mmHg 70%
    20:00 +19°C° 0 mm 2 mps 740 mmHg 75%
    21:00 +19°C° 0 mm 1 mps 739 mmHg 77%
    22:00 +18°C° 0 mm 1 mps 739 mmHg 78%
    23:00 +16°C° 0 mm 1 mps 739 mmHg 79%

    24 Mayo, Viernes

    Tiempo Temperatura Precipitaciones Viento Presión Humedad
    00:00 +16°C° 0 mm 1 mps 739 mmHg 81%
    01:00 +16°C° 0 mm 1 mps 739 mmHg 82%
    02:00 +15°C° 0 mm 1 mps 739 mmHg 83%
    03:00 +15°C° 0 mm 1 mps 739 mmHg 83%
    04:00 +16°C° 0 mm 1 mps 739 mmHg 83%
    05:00 +16°C° 0 mm 1 mps 739 mmHg 83%
    06:00 +18°C° 0 mm 1 mps 739 mmHg 82%
    07:00 +18°C° 0 mm 2 mps 739 mmHg 80%
    08:00 +19°C° 0 mm 2 mps 739 mmHg 78%
    09:00 +20°C° 0.4 mm 2 mps 739 mmHg 75%
    10:00 +21°C° 0.4 mm 2 mps 739 mmHg 71%
    11:00 +23°C° 0.4 mm 2 mps 739 mmHg 68%
    12:00 +24°C° 0.2 mm 1 mps 739 mmHg 64%
    13:00 +25°C° 0.2 mm 1 mps 738 mmHg 60%
    14:00 +24°C° 0.2 mm 0 mps 738 mmHg 56%
    15:00 +23°C° 0.4 mm 0 mps 738 mmHg 58%
    16:00 +23°C° 0.4 mm 0 mps 738 mmHg 60%
    17:00 +23°C° 0.4 mm 0 mps 738 mmHg 62%
    18:00 +23°C° 0.9 mm 1 mps 737 mmHg 69%
    19:00 +21°C° 0.9 mm 1 mps 737 mmHg 76%
    20:00 +18°C° 0.9 mm 2 mps 737 mmHg 83%
    21:00 +17°C° 0.6 mm 2 mps 737 mmHg 86%
    22:00 +17°C° 0.6 mm 2 mps 737 mmHg 89%
    23:00 +16°C° 0.6 mm 2 mps 737 mmHg 91%

    25 Mayo, Sábado

    Tiempo Temperatura Precipitaciones Viento Presión Humedad
    00:00 +15°C° 0.2 mm 2 mps 737 mmHg 92%
    01:00 +15°C° 0.2 mm 2 mps 737 mmHg 93%
    02:00 +15°C° 0.2 mm 2 mps 736 mmHg 94%
    03:00 +15°C° 0.4 mm 2 mps 736 mmHg 94%
    04:00 +15°C° 0.4 mm 2 mps 736 mmHg 95%
    05:00 +15°C° 0.4 mm 2 mps 736 mmHg 95%
    06:00 +16°C° 1.5 mm 2 mps 737 mmHg 93%
    07:00 +17°C° 1.5 mm 2 mps 737 mmHg 91%
    08:00 +18°C° 1.5 mm 2 mps 737 mmHg 89%
    09:00 +19°C° 1.6 mm 2 mps 737 mmHg 83%
    10:00 +21°C° 1.6 mm 2 mps 736 mmHg 78%
    11:00 +23°C° 1.6 mm 2 mps 736 mmHg 72%
    12:00 +21°C° 1.5 mm 3 mps 736 mmHg 75%
    13:00 +21°C° 1.5 mm 3 mps 736 mmHg 78%
    14:00 +21°C° 1.5 mm 3 mps 736 mmHg 80%
    15:00 +20°C° 0.3 mm 4 mps 736 mmHg 80%
    16:00 +20°C° 0.3 mm 4 mps 736 mmHg 80%
    17:00 +20°C° 0.3 mm 4 mps 736 mmHg 80%
    18:00 +19°C° 0.1 mm 4 mps 736 mmHg 84%
    19:00 +18°C° 0.1 mm 3 mps 736 mmHg 87%
    20:00 +17°C° 0.1 mm 3 mps 735 mmHg 90%
    21:00 +16°C° 0 mm 3 mps 736 mmHg 92%
    22:00 +15°C° 0 mm 4 mps 736 mmHg 94%
    23:00 +14°C° 0 mm 4 mps 736 mmHg 96%
    Mostrar más